^^
Peaceful Hills Weather Station Historical Data
 
Daily Summary for January 29, 2020 Units:  English    Metric   Both
Daily Weekly Monthly Yearly Custom
  Current: High: Low: Average:
Temperature: 42.3 °F 44.7 °F 41.8 °F 42.8 °F
Dew Point: 40.1 °F 42.5 °F 39.6 °F 40.6 °F
Humidity: 92% 92% 92% 92%
Wind Speed: 2.6mph 2.8mph 0mph 0.8mph
Wind Gust: 9mph 14mph - -
WindENE - - East
Pressure: 30.04 in 30.04 in 29.93 in -
Precipitation: 0.26 in      
Historical Graphs
 
 
Tabular Data for January 29, 2020
Time Temperature Dew Point Pressure Wind Wind Speed Wind Gust Humidity Rainfall Rate (Hourly)
00:04 44.7 °F 42.5 °F 29.96 in East 1.6 mph 5 mph 92% 0.01 in
00:09 44.6 °F 42.4 °F 29.96 in Calm   5 mph 92% 0.01 in
00:14 44.5 °F 42.3 °F 29.96 in Calm     92% 0.01 in
00:19 44.4 °F 42.2 °F 29.96 in Calm   4 mph 92% 0.01 in
00:24 44.3 °F 42.1 °F 29.96 in NNE 0.8 mph 7 mph 92% 0.01 in
00:29 44.3 °F 42.1 °F 29.96 in ENE 1 mph 7 mph 92% 0.01 in
00:34 44.2 °F 42 °F 29.96 in East 2 mph 7 mph 92% 0.01 in
00:39 44.1 °F 41.9 °F 29.96 in East 0.4 mph 5 mph 92% 0.01 in
00:44 44.1 °F 41.9 °F 29.96 in ENE 0.8 mph 9 mph 92% 0.02 in
00:49 44.1 °F 41.9 °F 29.95 in ENE 0.4 mph 4 mph 92% 0.02 in
00:54 44.1 °F 41.9 °F 29.95 in ESE 0.8 mph 7 mph 92% 0.02 in
00:59 44.1 °F 41.9 °F 29.95 in NE 0.8 mph 7 mph 92% 0.02 in
01:04 44.1 °F 41.9 °F 29.95 in ENE 0.8 mph 7 mph 92% 0.01 in
01:09 44 °F 41.8 °F 29.95 in ESE 1.6 mph 7 mph 92% 0.01 in
01:14 44 °F 41.8 °F 29.95 in NE 1.8 mph 10 mph 92% 0.02 in
01:19 44 °F 41.8 °F 29.95 in East 1.8 mph 9 mph 92% 0.02 in
01:24 44 °F 41.8 °F 29.94 in East 2.2 mph 9 mph 92% 0.02 in
01:29 43.9 °F 41.7 °F 29.94 in East 0.4 mph 7 mph 92% 0.02 in
01:34 43.9 °F 41.7 °F 29.94 in East 1.8 mph 9 mph 92% 0.02 in
01:39 43.9 °F 41.7 °F 29.94 in East 0.8 mph 10 mph 92% 0.02 in
01:44 43.8 °F 41.6 °F 29.94 in Calm   10 mph 92% 0.02 in
01:49 43.8 °F 41.6 °F 29.94 in Calm   2 mph 92% 0.02 in
01:54 43.8 °F 41.6 °F 29.94 in ENE 0.8 mph 5 mph 92% 0.02 in
01:59 43.8 °F 41.6 °F 29.94 in ENE 1.6 mph 14 mph 92% 0.02 in
02:04 43.7 °F 41.5 °F 29.94 in NE 0.8 mph 14 mph 92% 0.02 in
02:09 43.6 °F 41.4 °F 29.94 in East 1.8 mph 12 mph 92% 0.03 in
02:14 43.5 °F 41.3 °F 29.93 in ENE 1.2 mph 14 mph 92% 0.03 in
02:19 43.5 °F 41.3 °F 29.93 in ENE 2.6 mph 9 mph 92% 0.02 in
02:24 43.4 °F 41.2 °F 29.94 in SE 0.4 mph 9 mph 92% 0.03 in
02:29 43.4 °F 41.2 °F 29.94 in SE 0.4 mph 7 mph 92% 0.04 in
02:34 43.3 °F 41.1 °F 29.94 in NE 0.8 mph 5 mph 92% 0.05 in
02:39 43.2 °F 41 °F 29.94 in ENE 2.8 mph 10 mph 92% 0.06 in
02:44 43.2 °F 41 °F 29.94 in NNE 0.4 mph 10 mph 92% 0.07 in
02:49 43.1 °F 40.9 °F 29.94 in NE 0.4 mph 9 mph 92% 0.07 in
02:54 43.1 °F 40.9 °F 29.94 in ENE 1.6 mph 12 mph 92% 0.08 in
02:59 43 °F 40.8 °F 29.94 in ENE 0.4 mph 5 mph 92% 0.08 in
03:04 42.9 °F 40.7 °F 29.94 in ENE 1.8 mph 5 mph 92% 0.09 in
03:09 42.9 °F 40.7 °F 29.94 in ENE 0.4 mph 4 mph 92% 0.08 in
03:14 42.9 °F 40.7 °F 29.95 in Calm   2 mph 92% 0.08 in
03:19 42.9 °F 40.7 °F 29.95 in ENE 1.2 mph 5 mph 92% 0.09 in
03:24 42.8 °F 40.6 °F 29.95 in Calm   4 mph 92% 0.09 in
03:29 42.8 °F 40.6 °F 29.95 in Calm     92% 0.10 in
03:34 42.8 °F 40.6 °F 29.95 in Calm     92% 0.10 in
03:39 42.8 °F 40.6 °F 29.95 in Calm     92% 0.10 in
03:44 42.8 °F 40.6 °F 29.95 in Calm     92% 0.10 in
03:49 42.8 °F 40.6 °F 29.95 in Calm   2 mph 92% 0.10 in
03:54 42.8 °F 40.6 °F 29.95 in Calm   2 mph 92% 0.10 in
03:59 42.8 °F 40.6 °F 29.95 in ENE 0.4 mph 2 mph 92% 0.10 in
04:04 42.8 °F 40.6 °F 29.95 in NE 1.6 mph 5 mph 92% 0.10 in
04:09 42.8 °F 40.6 °F 29.95 in ENE 0.4 mph 4 mph 92% 0.12 in
04:14 42.7 °F 40.5 °F 29.94 in ENE 1.4 mph 9 mph 92% 0.12 in
04:19 42.7 °F 40.5 °F 29.94 in Calm   7 mph 92% 0.11 in
04:24 42.7 °F 40.5 °F 29.94 in East 1.2 mph 5 mph 92% 0.11 in
04:29 42.7 °F 40.5 °F 29.94 in NE 0.4 mph 5 mph 92% 0.11 in
04:34 42.7 °F 40.5 °F 29.94 in NE 0.4 mph 4 mph 92% 0.09 in
04:39 42.6 °F 40.4 °F 29.95 in Calm   2 mph 92% 0.08 in
04:44 42.5 °F 40.3 °F 29.95 in NE 0.4 mph 2 mph 92% 0.07 in
04:49 42.5 °F 40.3 °F 29.95 in NE 1.2 mph 5 mph 92% 0.06 in
04:54 42.5 °F 40.3 °F 29.96 in NE 0.8 mph 7 mph 92% 0.05 in
04:59 42.4 °F 40.2 °F 29.96 in NNE 0.4 mph 7 mph 92% 0.05 in
05:04 42.4 °F 40.2 °F 29.96 in NE 1.6 mph 9 mph 92% 0.03 in
05:09 42.4 °F 40.2 °F 29.96 in Calm   9 mph 92% 0.02 in
05:14 42.4 °F 40.2 °F 29.96 in NE 2.2 mph 9 mph 92% 0.02 in
05:19 42.4 °F 40.2 °F 29.96 in NE 0.8 mph 9 mph 92% 0.02 in
05:24 42.4 °F 40.2 °F 29.96 in ENE 0.4 mph 7 mph 92% 0.01 in
05:29 42.4 °F 40.2 °F 29.96 in East 0.4 mph 5 mph 92% 0.01 in
05:34 42.4 °F 40.2 °F 29.96 in ENE 2.8 mph 12 mph 92% 0.01 in
05:39 42.4 °F 40.2 °F 29.96 in East 1.4 mph 7 mph 92% 0.01 in
05:44 42.4 °F 40.2 °F 29.96 in ENE 0.4 mph 5 mph 92% 0.01 in
05:49 42.4 °F 40.2 °F 29.96 in ESE 0.4 mph 4 mph 92% 0.01 in
05:54 42.4 °F 40.2 °F 29.97 in Calm   4 mph 92% 0.01 in
05:59 42.4 °F 40.2 °F 29.97 in ENE 1.6 mph 9 mph 92% 0.01 in
06:04 42.4 °F 40.2 °F 29.97 in NNE 0.4 mph 9 mph 92% 0.01 in
06:09 42.4 °F 40.2 °F 29.97 in East 0.4 mph 14 mph 92% 0.01 in
06:14 42.4 °F 40.2 °F 29.97 in ENE 0.4 mph 14 mph 92% 0.00 in
06:19 42.4 °F 40.2 °F 29.97 in Calm   7 mph 92% 0.00 in
06:24 42.4 °F 40.2 °F 29.97 in ENE 1.2 mph 4 mph 92% 0.00 in
06:29 42.3 °F 40.1 °F 29.97 in NE 1 mph 5 mph 92% 0.00 in
06:34 42.3 °F 40.1 °F 29.97 in Calm   12 mph 92% 0.00 in
06:39 42.3 °F 40.1 °F 29.98 in Calm   9 mph 92% 0.00 in
06:44 42.3 °F 40.1 °F 29.98 in NW 0.4 mph 9 mph 92% 0.00 in
06:49 42.2 °F 40 °F 29.98 in NE 1.2 mph 7 mph 92% 0.00 in
06:54 42.2 °F 40 °F 29.98 in North 0.4 mph 4 mph 92% 0.00 in
06:59 42.2 °F 40 °F 29.99 in NNE 1 mph 7 mph 92% 0.00 in
07:04 42.2 °F 40 °F 29.99 in NNE 0.8 mph 7 mph 92% 0.00 in
07:09 42.2 °F 40 °F 29.99 in NNE 0.4 mph 5 mph 92% 0.00 in
07:14 42.2 °F 40 °F 29.99 in ESE 0.4 mph 5 mph 92% 0.00 in
07:19 42.1 °F 39.9 °F 29.99 in NNE 0.4 mph 14 mph 92% 0.00 in
07:24 42 °F 39.8 °F 30.00 in WNW 0.4 mph 5 mph 92% 0.00 in
07:29 42 °F 39.8 °F 30.00 in NE 0.8 mph 4 mph 92% 0.00 in
07:34 41.9 °F 39.7 °F 30.00 in NNE 1.2 mph 9 mph 92% 0.00 in
07:39 41.8 °F 39.6 °F 30.00 in East 1.2 mph 5 mph 92% 0.00 in
07:44 41.8 °F 39.6 °F 30.00 in East 1.4 mph 7 mph 92% 0.00 in
07:49 41.8 °F 39.6 °F 30.00 in ENE 2.2 mph 10 mph 92% 0.00 in
07:54 41.8 °F 39.6 °F 30.01 in NNW 1.6 mph 12 mph 92% 0.00 in
07:59 41.9 °F 39.7 °F 30.01 in North 0.8 mph 5 mph 92% 0.00 in
08:04 41.9 °F 39.7 °F 30.01 in East 1.2 mph 9 mph 92% 0.00 in
08:09 41.8 °F 39.6 °F 30.01 in ESE 0.4 mph 4 mph 92% 0.00 in
08:14 41.8 °F 39.6 °F 30.01 in NE 2.8 mph 5 mph 92% 0.00 in
08:19 41.8 °F 39.6 °F 30.02 in NNE 0.4 mph 5 mph 92% 0.00 in
08:24 41.8 °F 39.6 °F 30.02 in East 0.4 mph 5 mph 92% 0.00 in
08:29 41.8 °F 39.6 °F 30.02 in ENE 2.2 mph 12 mph 92% 0.00 in
08:34 41.9 °F 39.7 °F 30.02 in North 0.8 mph 7 mph 92% 0.00 in
08:39 41.9 °F 39.7 °F 30.02 in NNW 0.4 mph 4 mph 92% 0.00 in
08:44 41.9 °F 39.7 °F 30.02 in East 1.4 mph 14 mph 92% 0.00 in
08:49 42 °F 39.8 °F 30.03 in Calm   2 mph 92% 0.00 in
08:54 42.1 °F 39.9 °F 30.03 in North 1.4 mph 9 mph 92% 0.00 in
08:59 42.2 °F 40 °F 30.03 in NNW 0.4 mph 4 mph 92% 0.00 in
09:04 42.2 °F 40 °F 30.03 in ENE 0.8 mph 9 mph 92% 0.00 in
09:09 42.1 °F 39.9 °F 30.04 in NNW 1.6 mph 5 mph 92% 0.00 in
09:14 42.1 °F 39.9 °F 30.04 in North 1.8 mph 5 mph 92% 0.00 in
09:19 42.2 °F 40 °F 30.04 in Calm   4 mph 92% 0.00 in
09:24 42.3 °F 40.1 °F 30.04 in Calm   4 mph 92% 0.00 in
09:29 42.3 °F 40.1 °F 30.04 in ENE 2.6 mph 9 mph 92% 0.00 in
Hot Springs, Arkansas, USA
Compliments of Weather Underground - 4 mb